Погода в Пемаланге

Индонезия     6°53′09″S   109°22′51″E
темп.,
°C
ветер,
м/с
пор.,
м/с
влажн.,
%
обл.,
%
осадки,
мм/ч
давл.,
гПа
погр.,
м
2 марта, вт
вт201:00+24юв118997 4.8 101126
04:00+24ю119067 0.5 100931
07:00+25ю128783 0.9 101193
10:00+29сз247488 0.8 1011787
13:00+29сз467594 3.4 1009963
16:00+26зсз248999 4.8 1008149
19:00+25ююз0191100 6.8 101025
22:00+25ююв1287100 0.0 101129
3 марта, ср
ср301:00+24ююз128799 0.0 101030
04:00+24ю128991 0.0 100927
07:00+25ююз238882 0.1 1010203
10:00+29зсз357361 0.3 1012896
13:00+29сз447132 2.2 1009990
16:00+29ссз337224 0.9 1007882
19:00+26сз118660 1.1 101025
22:00+25юз1289100 1.6 101233
4 марта, чт
чт401:00+23зюз239299 2.1 1011128
04:00+24ююз1287100 0.1 101041
07:00+25зюз128595 0.2 1012126
10:00+29сз226771 0.1 1012673
13:00+29сз346785 1.0 1010847
16:00+27сз1278100 1.4 1008385
19:00+25юз1284100 2.1 101131
22:00+25ююз1286100 0.1 101257
5 марта, пт
пт501:00+24ю2484100 0.6 1011117
04:00+24юз2283100 0.0 101068
07:00+24ю2283100 0.0 101173
10:00+30ююв245588 0.0 1011858
13:00+33юв134966 0.0 10091567
16:00+30св236335 0.5 1007771
19:00+25ссз128459 1.0 101029
22:00+24юз128785 0.3 101147
6 марта, сб
сб601:00+24ююз128491 0.3 101028
04:00+24ю118461 0.0 100923
07:00+25ю117973 0.0 101161
10:00+30сз226377 0.0 1011870
13:00+30ссз336688 1.4 1008969
16:00+28ссз2275100 3.5 1008699
19:00+25ююз118899 6.6 101027
22:00+24зюз2393100 2.1 1012145